Location: Unspecified
(35.7250°N, 0.0000°E)
Time: 04:13:32
(UTC+00:00)

Vanguard 1 - Pass Details

Date: 25 June 2019
Orbit: 653 x 3830 km, 34.3° (Epoch: 22 July)

Event Time Altitude Azimuth Distance (km) Brightness Sun altitude
Rises 21:33:24 0° 191° (S) 7,609 14.2 -21.2°
Enters shadow 21:37:57 - 183° (S) 7,111 14.0 -21.7°
Reaches altitude 10° 21:40:41 10° 177° (S) 6,837 - -22.0°
Maximum altitude 21:55:49 22° 136° (SE) 5,848 - -23.7°
Exits shadow 22:01:53 19° 117° (ESE) 5,836 13.5 -24.3°
Drops below altitude 10° 22:09:24 10° 95° (E) 6,210 13.8 -25.1°
Sets 22:15:15 0° 82° (E) 6,788 14.2 -25.7°
